PEGASUS DEB, 24082

Orbit data source: Space-Track

PEGASUS DEB, 24082 is space debris in LEO originally from a launch on Thu, 19 May 1994 UTC launched from the Air Force Western Test Range (AFWTR). Debris objects in space refer to the collection of defunct objects orbiting the Earth. Examples of debris include non-operational satellites, rocket bodies, and fragments generated from explosions, collisions, or faulty payload assembly.

Loading next visibility...
Identifier
24082, 1994-029ED
Orbit
LEO
Country
Flag of USUS
Related business
Manufacturer
Unknown
Mission
Spacecraft
Bus & Motor
Unknown
Mass
Unknown
Launch date (UTC)
1994-05-19 (32 years ago)
Launch vehicle
Unknown
Launch site
Air Force Western Test Range (AFWTR)
Object type
Payload
Rocket body
Debris
Shape & HBR
Unknown shape, 0.1 m
Radar Cross Section
Medium (>0.1 m² and <1 m²)

Expand to show TLE details & history
Last TLE update: 13 hours ago

TLE from 13 hours ago
0 PEGASUS DEB
1 24082U 94029ED  26228.53522360  .00006135  00000-0  28800-3 0  9992
2 24082  81.9083 272.6322 0040012   0.1289 359.9946 15.18728275629501
Epoch: 2026-08-16T12:50Z
TLE epoch observation values (Epoch: 2026-08-16T12:50:43.319Z)
Latitude
Longitude
115.02135°
Altitude
485.186 km
Speed
7.638 km/s
True Right ascension
18h 10m 31s
True Declination
0° 00' 00"
Sunlit
Object was in full shadow at epoch
Visualization orbit readout
Latitude
Unknown
Longitude
Unknown
Altitude
Unknown
Speed
Unknown
Apparent Right ascension
Unknown
Apparent Declination
Unknown
Sunlit
N/A
Visualization observer readout
Local Sidereal Time
17:02:00
Azimuth
Unknown
Elevation
Unknown
Doppler factor
Unknown
Orbital elements
Apogee altitude
534.229 km
Perigee altitude
479.134 km
Semi-major axis
6,884.818 km
Eccentricity
0.004
Inclination
81.9083°
RAAN
272.6322°
Arg. of periapsis
0.1289°
True anomaly
359.99456°
Mean anomaly
359.9946°
Eccentric anomaly
359.99458°
Mean motion
3.79931 °/min
Orbital period
94.75 mins
BSTAR
0.000288
Loading maneuver chart data...
Computing Atmospheric mass density...

Documentation

Showing up to 5 results
|